Starlink 33604

operational
NORAD ID: 63070 Int'l Des: 2025-035 Owner: SPXS Country: US Constellation: starlink
LEOCIRCULAR

Über Starlink 33604

Beschreibung wird geladen...

Live-Position

3D-Globus wird geladen...

Nächste Überflüge

Höhenverlauf

Altitude vs Time

uPlot chart will show altitude changes over time

Zweizeiliger Elementsatz

1 63070U 25035U 26034.22112491 .00023457 00000-0 85845-3 0 9992
2 63070 43.0029 342.1399 0001690 249.1898 110.8772 15.27608623 54447
Epoch: 3. Feb. 2026 • Age: 12 hours

Aktueller Status

Höhe 486.4 km
Geschwindigkeit 7.62 km/s
Subsatellitenpunkt -17.72°S, 80.82°W
Startdatum 21. Feb. 2025
Alter 0.9 years
Typ internet

Technische Details

Klassifizierung Payload
Masse 575.00 kg
Trockenmasse 530.00 kg
Gesamtmasse 575.00 kg
Länge 0.30 m
Durchmesser 4.10 m
Spannweite 29.00 m
Form Box + pan
Hersteller SPXS
Bus-Typ Starlink V2MO
Phasenstatus In Orbit
Besitzer/Staat SPXS/US

Große Konstellationen

Loading constellations...